Location: Zapote
(9.9191°N, 84.0597°W)
Time: 16:57:23
(UTC-06:00)

Transit 2A - Pass Details

Date: 01 March 2021
Orbit: 602 x 957 km, 66.7° (Epoch: 16 April)

Event Time Altitude Azimuth Distance (km) Brightness Sun altitude
Rises 05:16:20 0° 326° (NNW) 2,860 8.6 -9.1°
Reaches altitude 10° 05:18:38 10° 319° (NW) 1,979 7.7 -8.6°
Maximum altitude 05:22:46 38° 250° (WSW) 977 6.2 -7.6°
Drops below altitude 10° 05:27:11 10° 182° (S) 2,123 8.4 -6.5°
Sets 05:29:44 0° 174° (S) 3,097 9.3 -5.9°
